User: anonymous   Login
Location: Unspecified
(0.0000°N, 0.0000°E)
Time: 00:10:47
(UTC+00:00)
Language:

deb Explorer IX - Orbit

View from above orbital plane
View from above orbital plane
View from above satellite
View from above satellite

Ground track
Ground track

The orbit data is extracted from the following two-line orbital elements,

1    85U 61004C   18346.14714267  .00003416  00000-0  75283-3 0  9990
2    85  38.7752 320.4829 0394896  58.4582 305.4107 14.19365727852400
Epoch (UTC): 12 December 2018 03:31:53
Eccentricity: 0.0394896
inclination: 38.7752°
perigee height: 543 km
apogee height: 1112 km
right ascension of ascending node: 320.4829°
argument of perigee: 58.4582°
revolutions per day: 14.19365727
mean anomaly at epoch: 305.4107°
orbit number at epoch: 85240

The dashed part of the orbit path shows where the satellite is in the earth's shadow,  

DLR